�������l�o���
Date,Time,MP-1(��Sv/h),MP-2(��Sv/h),MP-3(��Sv/h),MP-4(��Sv/h),MP-5(��Sv/h),MP-6(��Sv/h),MP-7(��Sv/h),MP-8(��Sv/h),����,����(m/s),���J
2024/05/01,00:00,0.514,0.781,0.492,0.971,0.701,0.319,0.556,0.521,�k,2.5,��
2024/05/01,00:10,0.515,0.782,0.493,0.971,0.702,0.318,0.556,0.522,�k,3.5,��
2024/05/01,00:20,0.513,0.782,0.493,0.971,0.702,0.319,0.556,0.521,�k,3.7,��
2024/05/01,00:30,0.515,0.783,0.492,0.970,0.704,0.320,0.556,0.521,�k�k��,4.0,��
2024/05/01,00:40,0.515,0.783,0.492,0.972,0.705,0.319,0.557,0.522,�k��,3.0,��
2024/05/01,00:50,0.516,0.783,0.491,0.973,0.702,0.320,0.556,0.521,�k��,1.5,��
2024/05/01,01:00,0.517,0.782,0.490,0.971,0.702,0.319,0.556,0.522,��,0.6,��
2024/05/01,01:10,0.514,0.781,0.491,0.972,0.702,0.318,0.556,0.520,�k��,1.9,��
2024/05/01,01:20,0.514,0.782,0.492,0.971,0.702,0.317,0.555,0.521,�k�k��,3.4,��
2024/05/01,01:30,0.512,0.782,0.490,0.971,0.702,0.318,0.557,0.519,�k�k��,3.5,��
2024/05/01,01:40,0.513,0.780,0.492,0.972,0.702,0.317,0.555,0.521,�k�k��,2.6,��
2024/05/01,01:50,0.511,0.779,0.491,0.970,0.702,0.317,0.556,0.520,�k,2.3,��
2024/05/01,02:00,0.515,0.781,0.490,0.970,0.702,0.317,0.555,0.521,�k�k��,2.0,��
2024/05/01,02:10,0.514,0.782,0.490,0.972,0.703,0.318,0.555,0.519,�k�k��,1.5,��
2024/05/01,02:20,0.513,0.780,0.491,0.973,0.703,0.317,0.557,0.520,�k,3.4,��
2024/05/01,02:30,0.514,0.783,0.489,0.970,0.703,0.318,0.555,0.520,�k,4.4,��
2024/05/01,02:40,0.513,0.782,0.491,0.972,0.702,0.318,0.555,0.521,�k,4.6,��
2024/05/01,02:50,0.513,0.780,0.489,0.972,0.702,0.319,0.555,0.520,�k,4.3,��
2024/05/01,03:00,0.515,0.781,0.492,0.971,0.703,0.317,0.555,0.521,�k�k��,4.4,��
2024/05/01,03:10,0.514,0.780,0.492,0.970,0.704,0.318,0.554,0.521,�k�k��,4.4,��
2024/05/01,03:20,0.515,0.781,0.492,0.968,0.701,0.319,0.556,0.521,�k�k��,4.9,��
2024/05/01,03:30,0.513,0.780,0.491,0.972,0.703,0.319,0.556,0.520,�k��,3.5,��
2024/05/01,03:40,0.512,0.782,0.491,0.971,0.704,0.318,0.555,0.521,�k��,3.4,��
2024/05/01,03:50,0.513,0.778,0.491,0.972,0.704,0.318,0.556,0.522,�k��,2.9,��
2024/05/01,04:00,0.514,0.781,0.491,0.972,0.703,0.320,0.555,0.520,�k��,4.4,��
2024/05/01,04:10,0.513,0.780,0.491,0.971,0.704,0.320,0.556,0.520,�k�k��,1.9,��
2024/05/01,04:20,0.514,0.781,0.491,0.971,0.702,0.319,0.557,0.521,�k��,2.6,��
2024/05/01,04:30,0.515,0.781,0.491,0.971,0.703,0.319,0.556,0.521,�k��,4.3,��
2024/05/01,04:40,0.514,0.782,0.493,0.971,0.701,0.319,0.557,0.520,�k�k��,3.8,��
2024/05/01,04:50,0.513,0.781,0.491,0.972,0.702,0.320,0.555,0.521,�k�k��,3.9,��
2024/05/01,05:00,0.514,0.781,0.490,0.970,0.703,0.318,0.556,0.521,�k��,4.0,��
2024/05/01,05:10,0.512,0.781,0.492,0.972,0.702,0.318,0.557,0.522,�k�k��,3.9,��
2024/05/01,05:20,0.515,0.780,0.492,0.973,0.702,0.318,0.556,0.521,�k�k��,4.5,��
2024/05/01,05:30,0.514,0.780,0.491,0.969,0.703,0.319,0.555,0.521,�k�k��,4.9,��
2024/05/01,05:40,0.513,0.782,0.489,0.972,0.701,0.317,0.556,0.520,�k,5.2,��
2024/05/01,05:50,0.514,0.780,0.489,0.971,0.702,0.316,0.556,0.520,�k,6.5,��
2024/05/01,06:00,0.513,0.781,0.488,0.971,0.701,0.318,0.555,0.521,�k�k��,6.2,��
2024/05/01,06:10,0.513,0.782,0.490,0.971,0.703,0.318,0.555,0.520,�k,7.4,��
2024/05/01,06:20,0.510,0.780,0.491,0.968,0.701,0.318,0.553,0.522,�k,6.4,��
2024/05/01,06:30,0.514,0.779,0.492,0.975,0.700,0.316,0.553,0.519,�k�k��,7.6,��
2024/05/01,06:40,0.512,0.782,0.489,0.969,0.700,0.317,0.553,0.518,�k�k��,6.3,��
2024/05/01,06:50,0.512,0.780,0.490,0.971,0.701,0.317,0.555,0.520,�k,7.1,��
2024/05/01,07:00,0.513,0.779,0.490,0.971,0.701,0.317,0.554,0.518,�k�k��,7.1,��
2024/05/01,07:10,0.512,0.780,0.490,0.971,0.702,0.317,0.555,0.519,�k,8.9,��
2024/05/01,07:20,0.512,0.778,0.491,0.971,0.698,0.316,0.554,0.518,�k,9.4,��
2024/05/01,07:30,0.512,0.780,0.492,0.969,0.701,0.315,0.555,0.520,�k,9.3,��
2024/05/01,07:40,0.513,0.778,0.489,0.973,0.700,0.317,0.553,0.519,�k�k��,8.1,��
2024/05/01,07:50,0.512,0.779,0.491,0.971,0.701,0.315,0.554,0.519,�k�k��,7.1,��
2024/05/01,08:00,0.511,0.778,0.488,0.970,0.702,0.314,0.555,0.519,�k�k��,8.3,��
2024/05/01,08:10,0.512,0.778,0.489,0.970,0.700,0.315,0.554,0.517,�k�k��,8.8,��
2024/05/01,08:20,0.512,0.779,0.491,0.969,0.701,0.315,0.554,0.518,�k�k��,8.3,��
2024/05/01,08:30,0.512,0.777,0.489,0.970,0.699,0.316,0.554,0.519,�k,8.4,��
2024/05/01,08:40,0.513,0.778,0.489,0.970,0.700,0.315,0.554,0.518,�k�k��,8.4,��
2024/05/01,08:50,0.510,0.778,0.487,0.970,0.700,0.316,0.555,0.519,�k�k��,9.1,��
2024/05/01,09:00,0.512,0.780,0.489,0.970,0.701,0.317,0.554,0.520,�k�k��,9.2,��
2024/05/01,09:10,0.513,0.778,0.490,0.970,0.701,0.315,0.553,0.517,�k,8.8,��
2024/05/01,09:20,0.512,0.778,0.489,0.970,0.703,0.316,0.554,0.517,�k�k��,8.7,��
2024/05/01,09:30,0.512,0.778,0.488,0.971,0.699,0.316,0.553,0.517,�k�k��,9.0,��
2024/05/01,09:40,0.513,0.779,0.489,0.971,0.701,0.315,0.554,0.517,�k�k��,9.6,��
2024/05/01,09:50,0.512,0.780,0.489,0.972,0.703,0.317,0.555,0.520,�k�k��,8.5,��
2024/05/01,10:00,0.514,0.779,0.489,0.971,0.699,0.317,0.555,0.519,�k�k��,8.7,��
2024/05/01,10:10,0.511,0.781,0.489,0.972,0.703,0.317,0.554,0.519,�k�k��,8.9,��
2024/05/01,10:20,0.514,0.780,0.489,0.970,0.702,0.315,0.553,0.518,�k,10.2,��
2024/05/01,10:30,0.514,0.782,0.488,0.971,0.702,0.316,0.555,0.519,�k�k��,10.8,��
2024/05/01,10:40,0.514,0.780,0.488,0.971,0.702,0.316,0.553,0.518,�k�k��,10.2,��
2024/05/01,10:50,0.512,0.781,0.490,0.972,0.702,0.315,0.555,0.519,�k�k��,9.9,��
2024/05/01,11:00,0.514,0.780,0.490,0.972,0.704,0.316,0.555,0.519,�k�k��,9.0,��
2024/05/01,11:10,0.512,0.782,0.488,0.970,0.702,0.316,0.553,0.519,�k�k��,10.2,��
2024/05/01,11:20,0.514,0.782,0.489,0.973,0.701,0.317,0.554,0.519,�k�k��,10.5,��
2024/05/01,11:30,0.513,0.781,0.490,0.972,0.703,0.316,0.555,0.519,�k�k��,10.8,��
2024/05/01,11:40,0.511,0.780,0.489,0.972,0.702,0.317,0.554,0.518,�k�k��,10.5,��
2024/05/01,11:50,0.513,0.779,0.487,0.972,0.701,0.316,0.554,0.517,�k�k��,10.7,��
2024/05/01,12:00,0.513,0.781,0.489,0.970,0.702,0.314,0.554,0.520,�k�k��,10.3,��
2024/05/01,12:10,0.513,0.779,0.489,0.973,0.701,0.319,0.555,0.519,�k�k��,10.6,��
2024/05/01,12:20,0.514,0.781,0.487,0.975,0.701,0.315,0.554,0.520,�k�k��,9.5,��
2024/05/01,12:30,0.512,0.780,0.488,0.973,0.703,0.315,0.553,0.518,�k�k��,10.7,��
2024/05/01,12:40,0.512,0.780,0.488,0.974,0.703,0.315,0.553,0.519,�k�k��,10.3,��
2024/05/01,12:50,0.511,0.781,0.489,0.973,0.701,0.316,0.554,0.519,�k�k��,9.9,��
2024/05/01,13:00,0.513,0.778,0.488,0.972,0.702,0.315,0.552,0.518,�k�k��,9.4,��
2024/05/01,13:10,0.512,0.780,0.490,0.976,0.701,0.315,0.552,0.520,�k�k��,10.0,��
2024/05/01,13:20,0.513,0.780,0.489,0.974,0.703,0.315,0.552,0.518,�k�k��,9.7,��
2024/05/01,13:30,0.512,0.780,0.489,0.973,0.702,0.315,0.553,0.519,�k�k��,10.0,��
2024/05/01,13:40,0.513,0.780,0.490,0.971,0.701,0.316,0.552,0.519,�k�k��,10.2,��
2024/05/01,13:50,0.512,0.780,0.489,0.971,0.702,0.316,0.552,0.518,�k�k��,11.4,��
2024/05/01,14:00,0.513,0.781,0.489,0.974,0.702,0.315,0.553,0.519,�k�k��,9.8,��
2024/05/01,14:10,0.512,0.780,0.487,0.973,0.702,0.316,0.553,0.518,�k,10.9,��
2024/05/01,14:20,0.512,0.781,0.488,0.974,0.702,0.316,0.553,0.518,�k�k��,9.5,��
2024/05/01,14:30,0.513,0.780,0.487,0.974,0.703,0.314,0.552,0.518,�k,7.3,��
2024/05/01,14:40,0.513,0.779,0.488,0.975,0.702,0.315,0.554,0.519,�k,8.2,�L
2024/05/01,14:50,0.513,0.782,0.489,0.975,0.704,0.315,0.554,0.519,�k,9.1,�L
2024/05/01,15:00,0.513,0.781,0.489,0.973,0.701,0.316,0.555,0.518,�k,6.8,�L
2024/05/01,15:10,0.513,0.782,0.490,0.974,0.704,0.316,0.554,0.520,�k,8.0,�L
2024/05/01,15:20,0.515,0.784,0.492,0.975,0.703,0.317,0.553,0.520,�k,6.7,�L
2024/05/01,15:30,0.513,0.783,0.494,0.972,0.704,0.319,0.553,0.519,�k,7.1,�L
2024/05/01,15:40,0.516,0.782,0.492,0.975,0.703,0.318,0.553,0.519,�k,6.1,�L
2024/05/01,15:50,0.516,0.785,0.492,0.975,0.706,0.318,0.553,0.521,�k,6.5,�L
2024/05/01,16:00,0.517,0.785,0.492,0.976,0.705,0.319,0.555,0.521,�k,6.9,�L
2024/05/01,16:10,0.518,0.786,0.494,0.974,0.705,0.321,0.554,0.522,�k,6.5,�L
2024/05/01,16:20,0.518,0.786,0.495,0.976,0.707,0.322,0.554,0.521,�k,6.0,�L
2024/05/01,16:30,0.520,0.788,0.494,0.978,0.708,0.322,0.554,0.522,�k,5.5,�L
2024/05/01,16:40,0.517,0.787,0.496,0.975,0.709,0.323,0.556,0.522,�k�k��,5.9,�L
2024/05/01,16:50,0.518,0.786,0.493,0.976,0.708,0.324,0.556,0.522,�k�k��,5.5,��
2024/05/01,17:00,0.517,0.786,0.493,0.977,0.708,0.322,0.555,0.522,�k�k��,5.5,�L
2024/05/01,17:10,0.519,0.786,0.493,0.977,0.706,0.320,0.556,0.521,�k�k��,7.8,�L
2024/05/01,17:20,0.519,0.788,0.492,0.976,0.708,0.320,0.556,0.522,�k��,8.0,�L
2024/05/01,17:30,0.520,0.785,0.494,0.976,0.708,0.323,0.556,0.522,�k��,7.9,�L
2024/05/01,17:40,0.520,0.787,0.494,0.978,0.710,0.323,0.554,0.523,�k��,7.4,�L
2024/05/01,17:50,0.521,0.784,0.496,0.977,0.708,0.324,0.554,0.522,�k��,7.4,�L
2024/05/01,18:00,0.521,0.784,0.497,0.974,0.709,0.324,0.555,0.521,�k��,8.1,�L
2024/05/01,18:10,0.520,0.784,0.495,0.975,0.707,0.323,0.555,0.521,�k��,6.9,�L
2024/05/01,18:20,0.520,0.784,0.494,0.976,0.708,0.322,0.556,0.522,�k��,6.0,�L
2024/05/01,18:30,0.521,0.784,0.493,0.974,0.707,0.322,0.554,0.522,�k��,6.2,�L
2024/05/01,18:40,0.518,0.782,0.492,0.974,0.707,0.322,0.555,0.521,�k��,7.9,�L
2024/05/01,18:50,0.518,0.780,0.491,0.976,0.704,0.321,0.555,0.521,�k��,8.0,�L
2024/05/01,19:00,0.516,0.783,0.490,0.971,0.702,0.321,0.556,0.522,�k��,7.9,�L
2024/05/01,19:10,0.517,0.780,0.492,0.975,0.705,0.320,0.556,0.521,�k��,6.8,�L
2024/05/01,19:20,0.517,0.779,0.490,0.973,0.705,0.320,0.554,0.521,�k��,8.0,�L
2024/05/01,19:30,0.516,0.779,0.489,0.973,0.703,0.318,0.556,0.520,�k��,7.8,��
2024/05/01,19:40,0.515,0.782,0.488,0.972,0.702,0.319,0.557,0.520,�k��,7.5,��
2024/05/01,19:50,0.513,0.779,0.488,0.972,0.701,0.319,0.556,0.519,�k��,7.4,��
2024/05/01,20:00,0.514,0.780,0.487,0.974,0.702,0.318,0.557,0.520,�k��,8.3,��
2024/05/01,20:10,0.513,0.776,0.487,0.973,0.700,0.317,0.554,0.520,�k��,8.7,��
2024/05/01,20:20,0.513,0.777,0.488,0.972,0.702,0.316,0.556,0.521,�k�k��,8.0,��
2024/05/01,20:30,0.514,0.777,0.486,0.970,0.701,0.316,0.555,0.521,�k�k��,8.7,��
2024/05/01,20:40,0.513,0.778,0.484,0.969,0.701,0.317,0.555,0.521,�k��,7.8,��
2024/05/01,20:50,0.514,0.778,0.487,0.971,0.700,0.315,0.554,0.519,�k��,8.5,��
2024/05/01,21:00,0.511,0.776,0.486,0.970,0.700,0.316,0.555,0.518,�k��,9.1,��
2024/05/01,21:10,0.513,0.775,0.486,0.970,0.701,0.316,0.554,0.520,�k��,8.2,��
2024/05/01,21:20,0.514,0.779,0.486,0.970,0.699,0.316,0.555,0.521,�k�k��,8.7,��
2024/05/01,21:30,0.512,0.778,0.486,0.971,0.701,0.317,0.554,0.521,�k�k��,8.1,��
2024/05/01,21:40,0.511,0.776,0.486,0.970,0.700,0.315,0.554,0.520,�k�k��,7.8,��
2024/05/01,21:50,0.514,0.778,0.488,0.971,0.699,0.316,0.554,0.519,�k�k��,8.0,��
2024/05/01,22:00,0.514,0.777,0.486,0.972,0.697,0.315,0.555,0.521,�k�k��,7.6,��
2024/05/01,22:10,0.512,0.779,0.486,0.970,0.696,0.315,0.554,0.520,�k�k��,8.0,��
2024/05/01,22:20,0.512,0.778,0.486,0.971,0.698,0.315,0.554,0.519,�k��,8.0,��
2024/05/01,22:30,0.512,0.777,0.485,0.971,0.697,0.317,0.555,0.520,�k�k��,8.0,��
2024/05/01,22:40,0.513,0.777,0.488,0.970,0.698,0.315,0.554,0.521,�k�k��,8.9,��
2024/05/01,22:50,0.512,0.780,0.486,0.972,0.699,0.316,0.553,0.518,�k��,8.3,��
2024/05/01,23:00,0.514,0.780,0.487,0.972,0.699,0.316,0.554,0.520,�k��,8.8,��
2024/05/01,23:10,0.512,0.779,0.489,0.971,0.699,0.315,0.554,0.518,�k�k��,10.2,��
2024/05/01,23:20,0.513,0.777,0.488,0.973,0.698,0.316,0.553,0.518,�k��,8.9,��
2024/05/01,23:30,0.514,0.779,0.486,0.971,0.697,0.316,0.554,0.520,�k�k��,9.5,��
2024/05/01,23:40,0.513,0.777,0.486,0.970,0.698,0.315,0.553,0.521,�k�k��,11.4,��
2024/05/01,23:50,0.512,0.777,0.487,0.973,0.699,0.315,0.554,0.520,�k�k��,11.0,��
